,,Stat5,,Stat1,,Stat2,,Stat3,,Stat4,,Wind1,,Wind1,
time,status,PA1M_AVG,status,PR1M_SUM,status,RH1M_AVG,status,SR1M_AVG,status,TA1M_AVG,status,W1dAve1m,status,W1sAve1m,
2000-08-06, 00:00:00,VALID,917.228,VALID,0,VALID,100,VALID,-0.0509425,VALID,18.2579,VALID,212,VALID,0.227431,
2000-08-06, 00:01:00,VALID,917.228,VALID,0,VALID,100,VALID,-0.0509425,VALID,18.2519,VALID,215,VALID,0.334152,
2000-08-06, 00:02:00,VALID,917.21,VALID,0,VALID,100,VALID,-0.0339617,VALID,18.2219,VALID,235,VALID,0.646537,
2000-08-06, 00:03:00,VALID,917.216,VALID,0,VALID,100,VALID,0,VALID,18.1998,VALID,211,VALID,0.609375,
2000-08-06, 00:04:00,VALID,917.204,VALID,0,VALID,100,VALID,-0.0339617,VALID,18.1668,VALID,235,VALID,0.90266,
2000-08-06, 00:05:00,VALID,917.186,VALID,0,VALID,100,VALID,-0.0509425,VALID,18.1612,VALID,223,VALID,0.641047,
2000-08-06, 00:06:00,VALID,917.174,VALID,0,VALID,100,VALID,-0.0509425,VALID,18.1416,VALID,216,VALID,0.588695,
2000-08-06, 00:07:00,VALID,917.169,VALID,0,VALID,100,VALID,-0.0509425,VALID,18.1326,VALID,214,VALID,0.585726,
2000-08-06, 00:08:00,VALID,917.16,VALID,0,VALID,100,VALID,-0.0339617,VALID,18.119,VALID,231,VALID,0.788194,
2000-08-06, 00:09:00,VALID,917.13,VALID,0,VALID,100,VALID,-0.0509425,VALID,18.113,VALID,225,VALID,0.392314,
2000-08-06, 00:10:00,VALID,917.107,VALID,0,VALID,100,VALID,-0.0339617,VALID,18.113,VALID,238,VALID,1.02808,
2000-08-06, 00:11:00,VALID,917.083,VALID,0,VALID,100,VALID,-0.0169808,VALID,18.1289,VALID,221,VALID,0.920117,
2000-08-06, 00:12:00,VALID,917.068,VALID,0,VALID,100,VALID,-0.0679233,VALID,18.1186,VALID,235,VALID,1.16907,
2000-08-06, 00:13:00,VALID,917.043,VALID,0,VALID,100,VALID,-0.0679233,VALID,18.1186,VALID,239,VALID,1.3168,
2000-08-06, 00:14:00,VALID,917.01,VALID,0,VALID,100,VALID,-0.0509425,VALID,18.1543,VALID,235,VALID,1.85567,
2000-08-06, 00:15:00,VALID,916.999,VALID,0,VALID,100,VALID,-0.0849042,VALID,18.2291,VALID,234,VALID,1.30059,
2000-08-06, 00:16:00,VALID,916.981,VALID,0,VALID,100,VALID,-0.0339617,VALID,18.2584,VALID,233,VALID,1.16707,
2000-08-06, 00:17:00,VALID,916.972,VALID,0,VALID,100,VALID,-0.0169808,VALID,18.2482,VALID,233,VALID,1.49023,
2000-08-06, 00:18:00,VALID,916.95,VALID,0,VALID,100,VALID,-0.0339617,VALID,18.2549,VALID,238,VALID,1.20703,
2000-08-06, 00:19:00,VALID,916.947,VALID,0,VALID,100,VALID,-0.0509425,VALID,18.2911,VALID,231,VALID,1.26348,
2000-08-06, 00:20:00,VALID,916.932,VALID,0,VALID,100,VALID,-0.0339617,VALID,18.284,VALID,239,VALID,1.15765,
2000-08-06, 00:21:00,VALID,916.918,VALID,0,VALID,100,VALID,-0.0679233,VALID,18.2847,VALID,234,VALID,0.974609,
2000-08-06, 00:22:00,VALID,916.905,VALID,0,VALID,100,VALID,-0.0509425,VALID,18.2681,VALID,235,VALID,1.11493,
2000-08-06, 00:23:00,VALID,916.888,VALID,0,VALID,100,VALID,-0.0679233,VALID,18.2454,VALID,234,VALID,1.0627,
2000-08-06, 00:24:00,VALID,916.889,VALID,0,VALID,100,VALID,-0.0509425,VALID,18.2323,VALID,242,VALID,1.30088,
2000-08-06, 00:25:00,VALID,916.856,VALID,0,VALID,100,VALID,-0.0509425,VALID,18.2291,VALID,242,VALID,0.950195,
2000-08-06, 00:26:00,VALID,916.851,VALID,0,VALID,100,VALID,0,VALID,18.2192,VALID,239,VALID,1.55592,
2000-08-06, 00:27:00,VALID,916.847,VALID,0,VALID,100,VALID,0,VALID,18.2487,VALID,238,VALID,1.17129,
2000-08-06, 00:28:00,VALID,916.845,VALID,0,VALID,100,VALID,-0.0679233,VALID,18.2418,VALID,242,VALID,1.22416,
2000-08-06, 00:29:00,VALID,916.838,VALID,0,VALID,100,VALID,-0.0339617,VALID,18.2298,VALID,233,VALID,1.41562,
2000-08-06, 00:30:00,VALID,916.834,VALID,0,VALID,100,VALID,-0.0339617,VALID,18.2328,VALID,235,VALID,0.923725,
2000-08-06, 00:31:00,VALID,916.839,VALID,0,VALID,100,VALID,-0.0339617,VALID,18.2125,VALID,237,VALID,1.34961,
2000-08-06, 00:32:00,VALID,916.837,VALID,0,VALID,100,VALID,-0.0849042,VALID,18.2166,VALID,241,VALID,1.30569,
2000-08-06, 00:33:00,VALID,916.848,VALID,0,VALID,100,VALID,-0.0339617,VALID,18.227,VALID,238,VALID,1.52148,
2000-08-06, 00:34:00,VALID,916.851,VALID,0,VALID,100,VALID,-0.0679233,VALID,18.2171,VALID,237,VALID,1.35095,
2000-08-06, 00:35:00,VALID,916.84,VALID,0,VALID,100,VALID,-0.0679233,VALID,18.2099,VALID,228,VALID,1.40723,
2000-08-06, 00:36:00,VALID,916.832,VALID,0,VALID,100,VALID,-0.0339617,VALID,18.2097,VALID,233,VALID,1.65124,
2000-08-06, 00:37:00,VALID,916.858,VALID,0,VALID,100,VALID,-0.0509425,VALID,18.1938,VALID,231,VALID,1.27715,
2000-08-06, 00:38:00,VALID,916.867,VALID,0,VALID,100,VALID,0,VALID,18.1806,VALID,235,VALID,1.09683,
2000-08-06, 00:39:00,VALID,916.873,VALID,0,VALID,100,VALID,0,VALID,18.1709,VALID,221,VALID,1.24492,
2000-08-06, 00:40:00,VALID,916.871,VALID,0,VALID,100,VALID,-0.0339617,VALID,18.155,VALID,233,VALID,1.253,
2000-08-06, 00:41:00,VALID,916.876,VALID,0,VALID,100,VALID,-0.0339617,VALID,18.1518,VALID,238,VALID,1.20664,
2000-08-06, 00:42:00,VALID,916.861,VALID,0,VALID,100,VALID,-0.0339617,VALID,18.1552,VALID,234,VALID,0.930099,
2000-08-06, 00:43:00,VALID,916.843,VALID,0,VALID,100,VALID,-0.0679233,VALID,18.1679,VALID,244,VALID,1.06133,
2000-08-06, 00:44:00,VALID,916.839,VALID,0,VALID,100,VALID,-0.0339617,VALID,18.1841,VALID,243,VALID,1.45012,
2000-08-06, 00:45:00,VALID,916.825,VALID,0,VALID,100,VALID,-0.0849042,VALID,18.2431,VALID,238,VALID,1.48066,
2000-08-06, 00:46:00,VALID,916.822,VALID,0,VALID,100,VALID,-0.0339617,VALID,18.2556,VALID,238,VALID,1.58162,
2000-08-06, 00:47:00,VALID,916.822,VALID,0,VALID,100,VALID,-0.0509425,VALID,18.2782,VALID,231,VALID,1.32227,
2000-08-06, 00:48:00,VALID,916.827,VALID,0,VALID,100,VALID,-0.0339617,VALID,18.2814,VALID,231,VALID,1.85757,
2000-08-06, 00:49:00,VALID,916.815,VALID,0,VALID,100,VALID,-0.0509425,VALID,18.2941,VALID,229,VALID,1.31074,
2000-08-06, 00:50:00,VALID,916.815,VALID,0,VALID,100,VALID,-0.0509425,VALID,18.3107,VALID,233,VALID,1.58141,
2000-08-06, 00:51:00,VALID,916.815,VALID,0,VALID,100,VALID,-0.0509425,VALID,18.3137,VALID,228,VALID,1.12109,
2000-08-06, 00:52:00,VALID,916.801,VALID,0,VALID,100,VALID,-0.0679233,VALID,18.3001,VALID,219,VALID,1.08894,
2000-08-06, 00:53:00,VALID,916.799,VALID,0,VALID,99.999,VALID,0,VALID,18.2976,VALID,220,VALID,1.00312,
2000-08-06, 00:54:00,VALID,916.803,VALID,0,VALID,100,VALID,0,VALID,18.2909,VALID,219,VALID,0.474301,
2000-08-06, 00:55:00,VALID,916.788,VALID,0,VALID,99.9771,VALID,-0.0679233,VALID,18.2621,VALID,139,VALID,0.405469,
2000-08-06, 00:56:00,VALID,916.775,VALID,0,VALID,99.9214,VALID,-0.0509425,VALID,18.1649,VALID,112,VALID,0.561098,
2000-08-06, 00:57:00,VALID,916.742,VALID,0,VALID,99.9138,VALID,-0.0339617,VALID,18.1066,VALID,112,VALID,0.600977,
2000-08-06, 00:58:00,VALID,916.738,VALID,0,VALID,99.9023,VALID,-0.0849042,VALID,18.0454,VALID,124,VALID,0.478002,
2000-08-06, 00:59:00,VALID,916.725,VALID,0,VALID,99.9468,VALID,-0.0339617,VALID,18.0549,VALID,134,VALID,0.475977,
2000-08-06, 01:00:00,VALID,916.688,VALID,0,VALID,99.9481,VALID,-0.0339617,VALID,18.0198,VALID,130,VALID,0.528245,
2000-08-06, 01:01:00,VALID,916.659,VALID,0,VALID,99.943,VALID,-0.0339617,VALID,17.9709,VALID,127,VALID,0.573828,
2000-08-06, 01:02:00,VALID,916.656,VALID,0,VALID,99.9519,VALID,-0.0339617,VALID,17.9423,VALID,163,VALID,0.55366,
2000-08-06, 01:03:00,VALID,916.62,VALID,0,VALID,99.9685,VALID,-0.0679233,VALID,17.9068,VALID,199,VALID,0.429102,
2000-08-06, 01:04:00,VALID,916.596,VALID,0,VALID,99.9944,VALID,-0.0509425,VALID,17.8971,VALID,204,VALID,0.163061,
2000-08-06, 01:05:00,VALID,916.578,VALID,0,VALID,100,VALID,-0.0339617,VALID,17.9003,VALID,224,VALID,0.665625,
2000-08-06, 01:06:00,VALID,916.543,VALID,0,VALID,100,VALID,-0.0339617,VALID,17.9192,VALID,212,VALID,1.1028,
2000-08-06, 01:07:00,VALID,916.541,VALID,0,VALID,100,VALID,-0.0169808,VALID,17.9582,VALID,215,VALID,1.08145,
2000-08-06, 01:08:00,VALID,916.522,VALID,0,VALID,100,VALID,-0.0679233,VALID,18.0037,VALID,211,VALID,0.809295,
2000-08-06, 01:09:00,VALID,916.498,VALID,0,VALID,100,VALID,-0.0849042,VALID,18.0104,VALID,222,VALID,1.01484,
2000-08-06, 01:10:00,VALID,916.487,VALID,0,VALID,100,VALID,-0.0679233,VALID,18.0039,VALID,224,VALID,1.25678,
2000-08-06, 01:11:00,VALID,916.467,VALID,0,VALID,100,VALID,-0.0679233,VALID,18.0039,VALID,217,VALID,1.10781,
2000-08-06, 01:12:00,VALID,916.432,VALID,0,VALID,100,VALID,-0.0849042,VALID,18.0327,VALID,210,VALID,0.657452,
2000-08-06, 01:13:01,VALID,916.421,VALID,0,VALID,100,VALID,-0.0509425,VALID,18.0394,VALID,211,VALID,0.721484,
2000-08-06, 01:14:00,VALID,916.407,VALID,0,VALID,100,VALID,-0.0509425,VALID,18.0101,VALID,192,VALID,1.13651,
2000-08-06, 01:15:00,VALID,916.385,VALID,0,VALID,100,VALID,-0.0509425,VALID,17.9815,VALID,180,VALID,0.720703,
2000-08-06, 01:16:00,VALID,916.378,VALID,0,VALID,99.999,VALID,-0.0679233,VALID,17.9455,VALID,207,VALID,1.00401,
2000-08-06, 01:17:00,VALID,916.36,VALID,0,VALID,100,VALID,-0.0169808,VALID,17.9617,VALID,198,VALID,1.47276,
2000-08-06, 01:18:00,VALID,916.36,VALID,0,VALID,100,VALID,-0.0509425,VALID,17.9811,VALID,210,VALID,1.74301,
2000-08-06, 01:19:00,VALID,916.352,VALID,0,VALID,100,VALID,-0.0169808,VALID,18.0134,VALID,212,VALID,1.61387,
2000-08-06, 01:20:00,VALID,916.352,VALID,0,VALID,100,VALID,-0.0339617,VALID,18.0424,VALID,218,VALID,1.45533,
2000-08-06, 01:21:00,VALID,916.33,VALID,0,VALID,100,VALID,-0.0679233,VALID,18.0427,VALID,211,VALID,1.2707,
2000-08-06, 01:22:00,VALID,916.324,VALID,0,VALID,100,VALID,-0.0849042,VALID,18.0362,VALID,216,VALID,1.27919,
2000-08-06, 01:23:00,VALID,916.306,VALID,0,VALID,100,VALID,-0.0509425,VALID,18.0461,VALID,219,VALID,1.28789,
2000-08-06, 01:24:00,VALID,916.298,VALID,0,VALID,100,VALID,-0.101885,VALID,18.0427,VALID,212,VALID,1.3133,
2000-08-06, 01:25:01,VALID,916.274,VALID,0,VALID,100,VALID,-0.0509425,VALID,18.0265,VALID,206,VALID,0.884961,
2000-08-06, 01:26:00,VALID,916.262,VALID,0,VALID,100,VALID,-0.0509425,VALID,18.0231,VALID,195,VALID,0.778577,
2000-08-06, 01:27:00,VALID,916.266,VALID,0,VALID,100,VALID,-0.0509425,VALID,18.0297,VALID,209,VALID,0.769922,
2000-08-06, 01:28:00,VALID,916.271,VALID,0,VALID,100,VALID,-0.0169808,VALID,18.0161,VALID,202,VALID,0.609976,
2000-08-06, 01:29:00,VALID,916.289,VALID,0,VALID,100,VALID,-0.0509425,VALID,18.0032,VALID,198,VALID,0.998828,
2000-08-06, 01:30:00,VALID,916.299,VALID,0,VALID,100,VALID,-0.0169808,VALID,18.0095,VALID,190,VALID,0.903783,
2000-08-06, 01:31:00,VALID,916.307,VALID,0,VALID,100,VALID,-0.0339617,VALID,18.0325,VALID,198,VALID,0.831641,
2000-08-06, 01:32:00,VALID,916.31,VALID,0,VALID,100,VALID,-0.0679233,VALID,18.0224,VALID,217,VALID,0.522035,
2000-08-06, 01:33:00,VALID,916.31,VALID,0,VALID,100,VALID,-0.0169808,VALID,18.0353,VALID,203,VALID,1.02598,
2000-08-06, 01:34:00,VALID,916.309,VALID,0,VALID,100,VALID,0,VALID,18.0489,VALID,210,VALID,0.474095,
2000-08-06, 01:35:00,VALID,916.307,VALID,0,VALID,100,VALID,-0.0169808,VALID,18.0325,VALID,218,VALID,0.907812,
2000-08-06, 01:36:00,VALID,916.3,VALID,0,VALID,100,VALID,0,VALID,18.0323,VALID,215,VALID,1.10757,
2000-08-06, 01:37:01,VALID,916.302,VALID,0,VALID,100,VALID,-0.0509425,VALID,18.0491,VALID,217,VALID,1.11289,
2000-08-06, 01:38:00,VALID,916.299,VALID,0,VALID,100,VALID,-0.0509425,VALID,18.0482,VALID,211,VALID,0.906044,
2000-08-06, 01:39:00,VALID,916.302,VALID,0,VALID,100,VALID,-0.0169808,VALID,18.0812,VALID,189,VALID,0.935938,
2000-08-06, 01:40:00,VALID,916.301,VALID,0,VALID,100,VALID,-0.0339617,VALID,18.0385,VALID,199,VALID,0.719351,
2000-08-06, 01:41:00,VALID,916.309,VALID,0,VALID,100,VALID,-0.0339617,VALID,18.0261,VALID,201,VALID,0.843359,
2000-08-06, 01:42:00,VALID,916.299,VALID,0,VALID,100,VALID,-0.0339617,VALID,18.033,VALID,202,VALID,1.13528,
2000-08-06, 01:43:00,VALID,916.307,VALID,0,VALID,100,VALID,-0.0509425,VALID,18.0452,VALID,185,VALID,0.901758,
2000-08-06, 01:44:00,VALID,916.314,VALID,0,VALID,100,VALID,-0.0169808,VALID,18.0293,VALID,194,VALID,1.08213,
2000-08-06, 01:45:00,VALID,916.317,VALID,0,VALID,100,VALID,-0.0339617,VALID,18.0295,VALID,198,VALID,0.626562,
2000-08-06, 01:46:00,VALID,916.304,VALID,0,VALID,100,VALID,-0.0679233,VALID,18.0097,VALID,203,VALID,0.574836,
2000-08-06, 01:47:00,VALID,916.286,VALID,0,VALID,100,VALID,-0.0679233,VALID,18.0002,VALID,189,VALID,0.529492,
2000-08-06, 01:48:00,VALID,916.265,VALID,0,VALID,100,VALID,-0.0509425,VALID,17.9711,VALID,159,VALID,0.724359,
2000-08-06, 01:49:01,VALID,916.252,VALID,0,VALID,100,VALID,-0.0169808,VALID,17.9423,VALID,175,VALID,0.842383,
2000-08-06, 01:50:00,VALID,916.241,VALID,0,VALID,100,VALID,-0.0679233,VALID,17.9292,VALID,174,VALID,1.10074,
2000-08-06, 01:51:00,VALID,916.225,VALID,0,VALID,100,VALID,-0.0509425,VALID,17.9296,VALID,145,VALID,0.859766,
2000-08-06, 01:52:00,VALID,916.208,VALID,0,VALID,99.9967,VALID,-0.0169808,VALID,17.839,VALID,137,VALID,0.948718,
2000-08-06, 01:53:00,VALID,916.206,VALID,0,VALID,99.999,VALID,-0.0339617,VALID,17.7871,VALID,142,VALID,1.09063,
2000-08-06, 01:54:00,VALID,916.197,VALID,0,VALID,100,VALID,-0.0169808,VALID,17.8353,VALID,163,VALID,1.03351,
2000-08-06, 01:55:00,VALID,916.18,VALID,0,VALID,100,VALID,-0.0339617,VALID,17.8872,VALID,190,VALID,1.13105,
2000-08-06, 01:56:00,VALID,916.171,VALID,0,VALID,100,VALID,-0.0339617,VALID,17.9585,VALID,204,VALID,1.3155,
2000-08-06, 01:57:00,VALID,916.18,VALID,0,VALID,100,VALID,0,VALID,17.9612,VALID,202,VALID,1.13828,
2000-08-06, 01:58:00,VALID,916.171,VALID,0,VALID,100,VALID,-0.0169808,VALID,17.955,VALID,192,VALID,1.51131,
2000-08-06, 01:59:00,VALID,916.19,VALID,0,VALID,100,VALID,-0.0339617,VALID,17.9645,VALID,192,VALID,1.66934,
2000-08-06, 02:00:00,VALID,916.193,VALID,0,VALID,100,VALID,0,VALID,17.952,VALID,197,VALID,1.75982,
2000-08-06, 02:01:01,VALID,916.182,VALID,0,VALID,100,VALID,0,VALID,17.958,VALID,193,VALID,1.8207,
2000-08-06, 02:02:00,VALID,916.187,VALID,0,VALID,100,VALID,-0.0339617,VALID,17.9677,VALID,185,VALID,1.52323,
2000-08-06, 02:03:00,VALID,916.188,VALID,0,VALID,100,VALID,-0.0169808,VALID,17.9548,VALID,186,VALID,1.26699,
2000-08-06, 02:04:00,VALID,916.177,VALID,0,VALID,100,VALID,0,VALID,17.9326,VALID,202,VALID,1.30589,
2000-08-06, 02:05:01,VALID,916.168,VALID,0,VALID,100,VALID,-0.0169808,VALID,17.9257,VALID,190,VALID,1.25488,
2000-08-06, 02:06:00,VALID,916.163,VALID,0,VALID,100,VALID,-0.0169808,VALID,17.9259,VALID,215,VALID,1.84005,
2000-08-06, 02:07:01,VALID,916.16,VALID,0,VALID,100,VALID,0,VALID,17.9386,VALID,217,VALID,1.21719,
2000-08-06, 02:08:00,VALID,916.145,VALID,0,VALID,100,VALID,-0.0339617,VALID,17.9419,VALID,214,VALID,1.88421,
2000-08-06, 02:09:00,VALID,916.145,VALID,0,VALID,100,VALID,0,VALID,17.9356,VALID,227,VALID,1.1584,
2000-08-06, 02:10:00,VALID,916.152,VALID,0,VALID,100,VALID,0,VALID,17.9188,VALID,219,VALID,1.38672,
2000-08-06, 02:11:01,VALID,916.149,VALID,0,VALID,100,VALID,-0.0169808,VALID,17.9227,VALID,219,VALID,1.4957,
2000-08-06, 02:12:00,VALID,916.164,VALID,0,VALID,100,VALID,0,VALID,17.9093,VALID,215,VALID,1.85998,
2000-08-06, 02:13:01,VALID,916.175,VALID,0,VALID,100,VALID,0.0509425,VALID,17.9183,VALID,228,VALID,1.7373,
2000-08-06, 02:14:00,VALID,916.184,VALID,0,VALID,100,VALID,0.0849042,VALID,17.9343,VALID,217,VALID,0.935033,
2000-08-06, 02:15:01,VALID,916.182,VALID,0,VALID,100,VALID,0.0849042,VALID,17.9216,VALID,213,VALID,1.34902,
2000-08-06, 02:16:00,VALID,916.194,VALID,0,VALID,100,VALID,0.101885,VALID,17.9082,VALID,217,VALID,1.13622,
2000-08-06, 02:17:01,VALID,916.199,VALID,0,VALID,100,VALID,0.101885,VALID,17.9117,VALID,206,VALID,0.831836,
2000-08-06, 02:18:01,VALID,916.212,VALID,0,VALID,100,VALID,0.0849042,VALID,17.902,VALID,198,VALID,0.725329,
2000-08-06, 02:19:01,VALID,916.227,VALID,0,VALID,100,VALID,0.0679233,VALID,17.899,VALID,196,VALID,0.889453,
2000-08-06, 02:20:00,VALID,916.232,VALID,0,VALID,100,VALID,0.0849042,VALID,17.8886,VALID,203,VALID,0.66266,
2000-08-06, 02:21:01,VALID,916.231,VALID,0,VALID,100,VALID,0.0509425,VALID,17.8858,VALID,207,VALID,0.863672,
2000-08-06, 02:22:01,VALID,916.229,VALID,0,VALID,100,VALID,0.0679233,VALID,17.8893,VALID,212,VALID,1.04153,
2000-08-06, 02:23:01,VALID,916.209,VALID,0,VALID,100,VALID,0.0169808,VALID,17.8891,VALID,225,VALID,1.08477,
2000-08-06, 02:24:01,VALID,916.21,VALID,0,VALID,100,VALID,0.0849042,VALID,17.8955,VALID,226,VALID,1.42628,
2000-08-06, 02:25:01,VALID,916.198,VALID,0,VALID,100,VALID,0.0679233,VALID,17.8927,VALID,221,VALID,1.33047,
2000-08-06, 02:26:01,VALID,916.167,VALID,0,VALID,100,VALID,0.0509425,VALID,17.8861,VALID,218,VALID,1.27467,
2000-08-06, 02:27:01,VALID,916.153,VALID,0,VALID,100,VALID,0.0169808,VALID,17.8639,VALID,201,VALID,1.03242,
2000-08-06, 02:28:01,VALID,916.147,VALID,0,VALID,100,VALID,-0.0679233,VALID,17.862,VALID,205,VALID,1.07532,
2000-08-06, 02:29:01,VALID,916.133,VALID,0,VALID,100,VALID,-0.0679233,VALID,17.8682,VALID,196,VALID,1.21211,
2000-08-06, 02:30:01,VALID,916.129,VALID,0,VALID,100,VALID,-0.0679233,VALID,17.8682,VALID,204,VALID,1.0331,
2000-08-06, 02:31:01,VALID,916.135,VALID,0,VALID,99.999,VALID,-0.0339617,VALID,17.8745,VALID,207,VALID,1.21797,
2000-08-06, 02:32:01,VALID,916.131,VALID,0,VALID,99.9921,VALID,-0.0169808,VALID,17.8844,VALID,202,VALID,0.851963,
2000-08-06, 02:33:01,VALID,916.129,VALID,0,VALID,99.9647,VALID,-0.0339617,VALID,17.8682,VALID,201,VALID,0.780273,
2000-08-06, 02:34:01,VALID,916.116,VALID,0,VALID,99.9418,VALID,-0.0169808,VALID,17.8583,VALID,199,VALID,0.795025,
2000-08-06, 02:35:01,VALID,916.107,VALID,0,VALID,99.9583,VALID,-0.0169808,VALID,17.8491,VALID,194,VALID,1.13008,
2000-08-06, 02:36:01,VALID,916.1,VALID,0,VALID,99.9481,VALID,-0.0679233,VALID,17.8362,VALID,190,VALID,0.984976,
2000-08-06, 02:37:01,VALID,916.098,VALID,0,VALID,99.957,VALID,-0.0169808,VALID,17.8422,VALID,200,VALID,1.11875,
2000-08-06, 02:38:01,VALID,916.092,VALID,0,VALID,99.9733,VALID,-0.0339617,VALID,17.8486,VALID,197,VALID,1.15831,
2000-08-06, 02:39:01,VALID,916.097,VALID,0,VALID,99.9392,VALID,-0.0339617,VALID,17.8424,VALID,193,VALID,0.987305,
2000-08-06, 02:40:01,VALID,916.092,VALID,0,VALID,99.943,VALID,-0.0169808,VALID,17.8456,VALID,194,VALID,1.13542,
2000-08-06, 02:41:01,VALID,916.08,VALID,0,VALID,99.9227,VALID,-0.0509425,VALID,17.8586,VALID,191,VALID,1.00312,
2000-08-06, 02:42:01,VALID,916.076,VALID,0,VALID,99.9049,VALID,-0.0849042,VALID,17.8493,VALID,203,VALID,0.74116,
2000-08-06, 02:43:00,VALID,916.07,VALID,0,VALID,99.9087,VALID,-0.0849042,VALID,17.8493,VALID,204,VALID,1.15313,
2000-08-06, 02:44:00,VALID,916.077,VALID,0,VALID,99.9214,VALID,-0.0679233,VALID,17.8489,VALID,188,VALID,1.27143,
2000-08-06, 02:45:00,VALID,916.077,VALID,0,VALID,99.8616,VALID,-0.0339617,VALID,17.8392,VALID,190,VALID,0.926562,
2000-08-06, 02:46:00,VALID,916.077,VALID,0,VALID,99.8655,VALID,-0.0509425,VALID,17.8103,VALID,184,VALID,0.997327,
2000-08-06, 02:47:00,VALID,916.085,VALID,0,VALID,99.8273,VALID,-0.0339617,VALID,17.7813,VALID,174,VALID,0.741602,
2000-08-06, 02:48:00,VALID,916.089,VALID,0,VALID,99.8286,VALID,-0.0339617,VALID,17.7294,VALID,172,VALID,0.953125,
2000-08-06, 02:49:00,VALID,916.093,VALID,0,VALID,99.8616,VALID,-0.0679233,VALID,17.7003,VALID,177,VALID,0.892969,
2000-08-06, 02:50:00,VALID,916.085,VALID,0,VALID,99.9771,VALID,-0.101885,VALID,17.7169,VALID,179,VALID,0.838816,
2000-08-06, 02:51:00,VALID,916.08,VALID,0,VALID,99.9748,VALID,-0.0509425,VALID,17.7229,VALID,168,VALID,0.976758,
2000-08-06, 02:52:00,VALID,916.071,VALID,0,VALID,99.9919,VALID,-0.0509425,VALID,17.7003,VALID,186,VALID,1.03185,
2000-08-06, 02:53:00,VALID,916.06,VALID,0,VALID,100,VALID,-0.0169808,VALID,17.6911,VALID,179,VALID,1.02402,
2000-08-06, 02:54:00,VALID,916.047,VALID,0,VALID,100,VALID,-0.0679233,VALID,17.6876,VALID,183,VALID,0.796258,
2000-08-06, 02:55:00,VALID,916.028,VALID,0,VALID,100,VALID,-0.0679233,VALID,17.6812,VALID,172,VALID,0.871094,
2000-08-06, 02:56:00,VALID,916.019,VALID,0,VALID,100,VALID,-0.0679233,VALID,17.6549,VALID,187,VALID,0.682692,
2000-08-06, 02:57:00,VALID,916.005,VALID,0,VALID,100,VALID,-0.0849042,VALID,17.6553,VALID,205,VALID,0.735352,
2000-08-06, 02:58:00,VALID,915.989,VALID,0,VALID,100,VALID,-0.0849042,VALID,17.6555,VALID,194,VALID,0.638158,
2000-08-06, 02:59:00,VALID,915.996,VALID,0,VALID,100,VALID,-0.0509425,VALID,17.632,VALID,173,VALID,0.799023,
2000-08-06, 03:00:00,VALID,915.986,VALID,0,VALID,100,VALID,-0.101885,VALID,17.6232,VALID,182,VALID,0.791867,
2000-08-06, 03:01:00,VALID,915.995,VALID,0,VALID,100,VALID,-0.0679233,VALID,17.5806,VALID,183,VALID,0.617969,
2000-08-06, 03:02:00,VALID,915.983,VALID,0,VALID,100,VALID,-0.0509425,VALID,17.5683,VALID,199,VALID,0.391447,
2000-08-06, 03:03:00,VALID,915.989,VALID,0,VALID,100,VALID,-0.0849042,VALID,17.5363,VALID,188,VALID,0.651953,
2000-08-06, 03:04:00,VALID,915.972,VALID,0,VALID,100,VALID,-0.0849042,VALID,17.5261,VALID,174,VALID,0.84996,
2000-08-06, 03:05:00,VALID,915.976,VALID,0,VALID,100,VALID,-0.0849042,VALID,17.5227,VALID,177,VALID,0.258398,
2000-08-06, 03:06:00,VALID,915.951,VALID,0,VALID,100,VALID,-0.0509425,VALID,17.4717,VALID,166,VALID,0,
2000-08-06, 03:07:00,VALID,915.952,VALID,0,VALID,100,VALID,-0.0509425,VALID,17.4422,VALID,196,VALID,0.303516,
2000-08-06, 03:08:00,VALID,915.927,VALID,0,VALID,100,VALID,-0.0849042,VALID,17.4708,VALID,218,VALID,1.0595,
2000-08-06, 03:09:00,VALID,915.908,VALID,0,VALID,100,VALID,-0.0339617,VALID,17.5328,VALID,222,VALID,0.894336,
2000-08-06, 03:10:00,VALID,915.885,VALID,0,VALID,100,VALID,-0.0339617,VALID,17.5361,VALID,213,VALID,0.297492,
2000-08-06, 03:11:00,VALID,915.877,VALID,0,VALID,100,VALID,0,VALID,17.5195,VALID,210,VALID,0.74668,
2000-08-06, 03:12:00,VALID,915.877,VALID,0,VALID,100,VALID,-0.0339617,VALID,17.4936,VALID,209,VALID,0.666266,
2000-08-06, 03:13:00,VALID,915.859,VALID,0,VALID,100,VALID,-0.0169808,VALID,17.5033,VALID,237,VALID,0.949219,
2000-08-06, 03:14:00,VALID,915.865,VALID,0,VALID,100,VALID,-0.0339617,VALID,17.5522,VALID,226,VALID,0.708676,
2000-08-06, 03:15:00,VALID,915.873,VALID,0,VALID,100,VALID,0,VALID,17.5653,VALID,238,VALID,1.06035,
2000-08-06, 03:16:00,VALID,915.867,VALID,0,VALID,100,VALID,-0.0849042,VALID,17.578,VALID,230,VALID,1.11218,
2000-08-06, 03:17:00,VALID,915.868,VALID,0,VALID,100,VALID,-0.0679233,VALID,17.5843,VALID,228,VALID,0.800977,
2000-08-06, 03:18:00,VALID,915.875,VALID,0,VALID,100,VALID,-0.0339617,VALID,17.5578,VALID,225,VALID,1.06908,
2000-08-06, 03:19:00,VALID,915.884,VALID,0,VALID,100,VALID,-0.0509425,VALID,17.5485,VALID,226,VALID,1.36621,
2000-08-06, 03:20:00,VALID,915.89,VALID,0,VALID,100,VALID,-0.0339617,VALID,17.5813,VALID,225,VALID,1.15565,
2000-08-06, 03:21:00,VALID,915.899,VALID,0,VALID,100,VALID,-0.0339617,VALID,17.6006,VALID,223,VALID,1.34531,
2000-08-06, 03:22:00,VALID,915.893,VALID,0,VALID,100,VALID,-0.0509425,VALID,17.6205,VALID,227,VALID,1.06867,
2000-08-06, 03:23:00,VALID,915.898,VALID,0,VALID,100,VALID,-0.0509425,VALID,17.6198,VALID,226,VALID,0.940625,
2000-08-06, 03:24:00,VALID,915.897,VALID,0,VALID,100,VALID,-0.0339617,VALID,17.6295,VALID,230,VALID,1.16787,
2000-08-06, 03:25:00,VALID,915.901,VALID,0,VALID,100,VALID,-0.0509425,VALID,17.6491,VALID,211,VALID,1.21172,
2000-08-06, 03:26:00,VALID,915.903,VALID,0,VALID,100,VALID,-0.0339617,VALID,17.6364,VALID,203,VALID,0.82648,
2000-08-06, 03:27:00,VALID,915.903,VALID,0,VALID,100,VALID,-0.0679233,VALID,17.5968,VALID,213,VALID,0.733789,
2000-08-06, 03:28:00,VALID,915.892,VALID,0,VALID,100,VALID,0,VALID,17.5933,VALID,210,VALID,1.22736,
2000-08-06, 03:29:00,VALID,915.9,VALID,0,VALID,100,VALID,0.0339617,VALID,17.5832,VALID,214,VALID,1.15078,
2000-08-06, 03:30:00,VALID,915.904,VALID,0,VALID,100,VALID,0.0339617,VALID,17.5864,VALID,233,VALID,1.10999,
2000-08-06, 03:31:00,VALID,915.903,VALID,0,VALID,100,VALID,0,VALID,17.5735,VALID,233,VALID,0.975781,
2000-08-06, 03:32:00,VALID,915.904,VALID,0,VALID,100,VALID,0,VALID,17.5769,VALID,227,VALID,1.13862,
2000-08-06, 03:33:00,VALID,915.907,VALID,0,VALID,100,VALID,0.0169808,VALID,17.5802,VALID,226,VALID,1.02402,
2000-08-06, 03:34:00,VALID,915.909,VALID,0,VALID,100,VALID,0.0509425,VALID,17.5827,VALID,240,VALID,0.711554,
2000-08-06, 03:35:00,VALID,915.908,VALID,0,VALID,100,VALID,0.0169808,VALID,17.5926,VALID,233,VALID,1.01895,
2000-08-06, 03:36:00,VALID,915.919,VALID,0,VALID,100,VALID,0,VALID,17.6251,VALID,232,VALID,1.01502,